Location: ???????
(55.5931°N, 39.3286°E)
Time: 20:05:32
(UTC+00:00)

NOSS 3-4 (A) - Pass Details

Date: 14 April 2024
Orbit: 806 x 1405 km, 63.4° (Epoch: 14 May)

Event Time Altitude Azimuth Distance (km) Brightness Sun altitude
Exits shadow 00:16:44 24° 234° (SW) 1,710 4.2 -15.6°
Maximum altitude 00:20:21 86° 320° (NW) 903 3.3 -15.2°
Drops below altitude 10° 00:26:43 10° 52° (NE) 2,754 7.3 -14.5°
Sets 00:29:29 0° 53° (NE) 3,797 8.5 -14.3°
